Lid_Strength_Index
0 -1 -1 -1 -1 -1 -0 -0 -0 0 0 2 4 3 1 0 -0 -1 -1 -1 -1 -2 -2 -2 -2 -2 -2 -2 -1 -0 0 0 1 1 1 1 2 2 2 1 1 0 0
0 0 -1 -1 -1 -0 -1 -1 -0 0 0 1 4 4 2 1 -0 -0 -1 -2 -0 -1 -2 -2 -2 -1 -2 -1 -0 0 0 1 1 1 2 2 2 2 2 2 2 2 2
-0 -1 0 1 -1 -1 -1 -0 0 1 1 2 3 4 3 1 1 -0 -0 -0 -1 0 -1 -2 -1 -1 -0 -1 -0 0 1 1 2 2 2 2 2 2 2 2 2 2 2
0 0 -0 0 0 -0 0 1 1 2 2 2 3 4 4 3 2 1 0 -0 0 0 -0 -1 -1 -1 -0 -0 0 0 1 1 1 2 2 2 2 3 3 3 2 2 3
0 0 0 -0 0 2 3 3 4 4 4 4 5 4 4 4 3 2 1 1 1 1 1 1 -0 0 -0 0 1 1 1 0 1 1 2 2 3 3 3 3 3 3 3
0 -0 -0 -0 0 1 2 2 2 2 2 2 4 6 5 5 4 4 2 2 1 1 1 1 1 1 1 0 1 1 0 1 1 1 1 2 2 3 3 3 3 4 4
-1 -1 -0 -0 -1 0 0 0 1 1 2 3 5 6 6 6 5 6 3 2 2 1 1 1 1 2 1 1 1 1 0 1 1 1 2 2 3 3 3 4 4 4 4
-1 -0 -0 0 1 1 1 1 1 1 1 3 5 6 8 7 7 5 5 5 4 3 3 3 2 2 2 2 1 1 1 1 1 2 2 3 3 4 4 4 4 4 4
2 1 2 2 2 2 2 2 2 2 3 2 3 4 8 9 7 5 5 5 5 4 4 4 3 2 3 3 2 2 2 2 1 2 2 3 3 4 4 5 5 5 5
5 4 4 5 4 4 4 3 2 2 2 3 3 2 3 5 7 9 6 5 4 4 4 4 3 4 4 4 3 3 4 4 3 2 2 3 3 4 4 5 5 5 5
6 6 5 5 5 4 4 4 3 2 2 2 3 3 4 3 4 6 6 6 4 3 4 4 5 4 5 5 4 5 5 5 4 3 3 3 4 4 4 5 5 5 6
6 6 6 6 6 6 5 5 4 3 3 2 2 2 2 4 5 5 6 5 5 4 3 4 4 5 5 5 4 5 5 6 5 4 4 4 4 4 4 5 5 6 6
7 7 6 7 7 6 6 5 5 4 3 2 1 2 1 1 2 2 4 5 5 5 5 5 5 5 5 5 5 5 6 6 6 5 5 5 4 5 5 5 6 6 6
8 7 7 7 7 7 6 5 5 4 3 2 1 2 2 2 1 1 2 3 5 4 6 7 4 5 6 6 5 5 6 7 7 6 6 6 6 6 6 6 6 7 6
8 8 8 8 8 8 7 6 5 4 4 3 2 2 1 1 1 0 1 1 4 6 6 6 6 4 5 6 6 6 7 7 7 7 7 7 6 7 6 7 7 7 8
8 9 8 8 7 7 7 6 6 6 6 5 4 3 1 1 1 1 1 1 1 3 6 3 5 5 6 6 5 7 7 7 8 8 8 8 8 8 8 8 8 9 9
9 9 9 9 9 8 6 6 6 6 6 6 4 4 4 3 3 3 3 2 2 2 4 5 3 4 5 7 6 6 6 7 8 9 9 9 9 10 9 10 10 10 10
10 10 10 10 9 9 9 8 8 6 6 5 5 6 6 5 5 5 5 4 3 3 3 4 4 5 6 6 6 7 7 8 8 9 10 10 10 11 11 11 11 11 11
10 10 10 10 10 10 9 8 7 7 6 7 7 8 8 8 8 8 7 6 4 3 2 3 7 6 5 6 7 8 8 9 9 9 10 11 11 11 12 12 12 13 13
12 12 11 11 10 10 9 8 8 8 9 9 9 9 9 9 10 9 8 8 7 5 2 3 6 7 8 8 9 12 13 10 11 10 11 12 12 12 13 13 13 13 14
12 11 11 11 11 11 9 9 10 11 10 10 10 10 10 10 9 9 9 8 7 7 5 7 8 10 9 11 11 11 12 12 13 12 13 13 14 14 13 14 14 14 14
12 12 12 12 12 10 9 10 10 11 11 11 12 12 11 10 10 10 9 9 8 7 6 7 8 10 10 10 10 11 12 13 14 13 14 14 14 14 15 14 14 14 14
13 13 13 12 11 10 10 11 11 11 11 12 13 13 12 11 10 9 9 9 9 9 8 5 8 9 10 9 10 11 12 12 12 13 13 16 14 15 15 15 14 15 15
14 13 13 12 11 11 11 11 11 12 12 13 13 13 13 12 10 10 8 8 9 8 8 5 7 7 8 8 10 11 11 12 13 13 13 17 15 16 15 15 14 15 15
13 13 12 11 11 12 12 11 11 12 13 13 14 13 13 12 12 9 11 11 10 10 8 7 7 8 9 10 10 11 13 14 15 14 13 15 16 17 15 15 14 15 15
13 11 11 10 11 12 12 12 12 12 14 13 13 13 13 12 12 11 11 11 12 12 12 13 12 12 12 12 11 11 12 14 15 16 15 16 17 16 18 15 15 14 14